Flag for United Kingdom Weather past 2 weeks in Eastbourne, England, United Kingdom

Now
46 °F

Passing clouds.


Feels Like: 41 °F
Forecast: 48 / 60 °F
Wind: 10 mph from North

Location: London / Gatwick Airport


UV Index: 3 (Moderate)

Visibility: 5 mi


Pressure: 29.89 "Hg

Humidity: 87%

Dew point: 43 °F

Location of EastbourneLocation

Historic Weather in Eastbourne

°F

Eastbourne temperature yesterday

Maximum temperature yesterday: 55 °F (at 3:20 PM)
Minimum temperature yesterday: 39 °F (at 1:50 AM)
Average temperature yesterday: 47 °F

Past Weeks' High & Low Weather Summary

 TemperatureHumidityPressure
High64 °F (Apr 17, 12:50 PM)100% (Apr 5, 2:50 AM)30.42 "Hg (Apr 5, 2:50 AM)
Low34 °F (Apr 16, 4:20 AM)23% (Apr 16, 5:50 PM)29.68 "Hg (Apr 7, 5:50 PM)
Average50 °F74%30.12 "Hg
* Reported Apr 5 12:20 AM — Apr 20 12:50 AM, Eastbourne, Weather by CustomWeather, © 2014

Note: Actual official high and low records may vary slightly from our data, if they occured in-between our weather recording intervals... More about our weather records

Advertising

Historic Weather Conditions — Data for Previous 24 hours

 ConditionsComfort  
Time TempWeatherWind HumidityBarometerVisibility
12:50 AM
Apr 20
45 °FPassing clouds.8 mph87%29.92 "Hg6 mi
12:20 AM46 °FPassing clouds.8 mph82%29.92 "HgN/A
11:50 PM
Apr 19
46 °FClear.6 mph82%29.95 "Hg10 mi
11:20 PM45 °FClear.7 mph87%29.95 "Hg10 mi
10:50 PM45 °FClear.9 mph87%29.98 "Hg10 mi
10:20 PM45 °FPassing clouds.7 mph81%29.98 "HgN/A
9:50 PM46 °FPassing clouds.8 mph82%29.98 "HgN/A
9:20 PM46 °FPassing clouds.10 mph82%30.01 "HgN/A
8:50 PM46 °FSunny.9 mph76%30.01 "Hg10 mi
8:20 PM46 °FPassing clouds.10 mph76%30.01 "HgN/A
7:50 PM48 °FPassing clouds.9 mph71%30.01 "HgN/A
7:20 PM50 °FSunny.15 mph67%30.01 "Hg10 mi
6:50 PM50 °FPassing clouds.14 mph67%29.98 "HgN/A
6:20 PM52 °FPassing clouds.14 mph62%29.98 "HgN/A
5:50 PM54 °FScattered clouds.15 mph54%29.98 "HgN/A
5:20 PM54 °FScattered clouds.12 mph58%29.98 "HgN/A
4:50 PM55 °FScattered clouds.15 mph55%29.98 "HgN/A
4:20 PM54 °FScattered clouds.12 mph58%30.01 "HgN/A
3:50 PM54 °FScattered clouds.15 mph58%30.01 "HgN/A
3:20 PM55 °FScattered clouds.12 mph55%30.01 "HgN/A
2:50 PM52 °FScattered clouds.15 mph62%30.04 "HgN/A
2:20 PM52 °FPartly sunny.13 mph62%30.04 "HgN/A
1:50 PM54 °FScattered clouds.13 mph54%30.04 "HgN/A
1:20 PM54 °FBroken clouds.15 mph54%30.04 "HgN/A
12:50 PM52 °FPartly sunny.14 mph54%30.04 "HgN/A
12:20 PM54 °FScattered clouds.10 mph54%30.07 "HgN/A
11:50 AM50 °FBroken clouds.10 mph58%30.07 "HgN/A
11:20 AM52 °FScattered clouds.13 mph58%30.07 "HgN/A
10:50 AM52 °FScattered clouds.13 mph58%30.07 "HgN/A
10:20 AM48 °FScattered clouds.13 mph66%30.07 "HgN/A
9:50 AM48 °FScattered clouds.13 mph66%30.07 "HgN/A
9:20 AM48 °FPartly sunny.15 mph62%30.07 "HgN/A
8:50 AM46 °FPassing clouds.15 mph66%30.07 "HgN/A
8:20 AM45 °FPassing clouds.13 mph71%30.07 "HgN/A
7:50 AM45 °FPassing clouds.12 mph66%30.07 "HgN/A
7:20 AM45 °FPassing clouds.7 mph66%30.07 "HgN/A
6:50 AM41 °FPassing clouds.8 mph76%30.07 "HgN/A
6:20 AM43 °FPassing clouds.8 mph71%30.07 "HgN/A
5:50 AM43 °FPassing clouds.6 mph71%30.07 "HgN/A
5:20 AM43 °FPassing clouds.7 mph71%30.07 "HgN/A
4:50 AM41 °FPassing clouds.6 mph76%30.07 "HgN/A
4:20 AM41 °FPassing clouds.6 mph76%30.09 "HgN/A
3:50 AM39 °FPassing clouds.7 mph81%30.09 "HgN/A
3:20 AM39 °FPassing clouds.7 mph81%30.09 "HgN/A
2:50 AM39 °FClear.8 mph81%30.09 "Hg10 mi
2:20 AM39 °FClear.7 mph81%30.09 "Hg10 mi
Weather by CustomWeather, © 2014

See weather overview